Time,TemperatureF,DewpointF,PressureIn,WindDirection,WindDirectionDegrees,WindSpeedMPH,WindSpeedGustMPH,Humidity,HourlyPrecipIn,Conditions,Clouds,dailyrainin,SoftwareType,DateUTC
2013-06-14 09:17:00,63.4,56.8,29.84,East,90,1.0,3.0,79,0.00,,---,0.00,VWS V14.01,2013-06-14 13:17:00,
2013-06-14 09:41:00,64.3,55.8,29.85,NW,323,1.0,1.0,74,0.00,,---,0.00,VWS V14.01,2013-06-14 13:41:00,
2013-06-14 09:47:00,64.3,57.3,29.85,ESE,102,1.0,1.0,78,0.00,,---,0.00,VWS V14.01,2013-06-14 13:47:00,
2013-06-14 09:52:00,64.4,56.7,29.85,ESE,103,0.0,1.0,76,0.00,,---,0.00,VWS V14.01,2013-06-14 13:52:00,
2013-06-14 09:57:00,64.5,56.0,29.86,South,179,1.0,1.0,74,0.00,,---,0.00,VWS V14.01,2013-06-14 13:57:00,
2013-06-14 10:02:00,64.7,56.6,29.85,SSW,192,1.0,1.0,75,0.00,,---,0.00,VWS V14.01,2013-06-14 14:02:00,
2013-06-14 10:07:00,65.1,56.2,29.86,South,182,1.0,2.0,73,0.00,,---,0.00,VWS V14.01,2013-06-14 14:07:00,
2013-06-14 10:12:00,65.3,55.7,29.86,NW,304,2.0,2.0,71,0.00,,---,0.00,VWS V14.01,2013-06-14 14:12:00,
2013-06-14 10:17:00,65.4,55.4,29.86,SE,145,0.0,1.0,70,0.00,,---,0.00,VWS V14.01,2013-06-14 14:17:00,
2013-06-14 10:22:00,65.5,57.0,29.87,SW,225,0.0,1.0,74,0.00,,---,0.00,VWS V14.01,2013-06-14 14:22:00,
2013-06-14 10:27:00,65.1,55.9,29.87,SSW,210,0.0,0.0,72,0.00,,---,0.00,VWS V14.01,2013-06-14 14:27:00,
2013-06-14 10:32:00,65.1,56.6,29.87,SE,146,0.0,0.0,74,0.00,,---,0.00,VWS V14.01,2013-06-14 14:32:00,
2013-06-14 10:37:00,65.4,57.7,29.87,SW,229,0.0,0.0,76,0.00,,---,0.00,VWS V14.01,2013-06-14 14:37:00,
2013-06-14 10:42:00,65.6,55.2,29.87,SSW,193,0.0,1.0,69,0.00,,---,0.00,VWS V14.01,2013-06-14 14:42:00,
2013-06-14 10:47:00,65.9,55.5,29.87,NNE,27,0.0,1.0,69,0.00,,---,0.00,VWS V14.01,2013-06-14 14:47:00,
2013-06-14 10:52:00,65.9,55.8,29.88,SSE,155,0.0,0.0,70,0.00,,---,0.00,VWS V14.01,2013-06-14 14:52:00,
2013-06-14 10:57:00,66.1,55.2,29.87,West,266,0.0,0.0,68,0.00,,---,0.00,VWS V14.01,2013-06-14 14:57:00,
2013-06-14 11:03:00,66.3,55.4,29.87,WNW,295,0.0,0.0,68,0.00,,---,0.00,VWS V14.01,2013-06-14 15:03:00,
2013-06-14 11:08:00,66.7,57.4,29.88,NW,319,1.0,1.0,72,0.00,,---,0.00,VWS V14.01,2013-06-14 15:08:00,
2013-06-14 11:13:00,66.9,58.3,29.88,South,170,0.0,0.0,74,0.00,,---,0.00,VWS V14.01,2013-06-14 15:13:00,
2013-06-14 11:18:00,66.7,55.4,29.88,South,187,0.0,1.0,67,0.00,,---,0.00,VWS V14.01,2013-06-14 15:18:00,
2013-06-14 11:23:00,66.9,56.8,29.88,SE,133,1.0,1.0,70,0.00,,---,0.00,VWS V14.01,2013-06-14 15:23:00,
2013-06-14 11:28:00,67.1,57.0,29.88,South,181,2.0,2.0,70,0.00,,---,0.00,VWS V14.01,2013-06-14 15:28:00,
2013-06-14 11:33:00,67.4,56.5,29.88,SE,124,0.0,2.0,68,0.00,,---,0.00,VWS V14.01,2013-06-14 15:33:00,
2013-06-14 11:38:00,67.6,57.5,29.88,NE,53,0.0,1.0,70,0.00,,---,0.00,VWS V14.01,2013-06-14 15:38:00,
2013-06-14 11:43:00,68.0,57.1,29.88,SE,132,0.0,1.0,68,0.00,,---,0.00,VWS V14.01,2013-06-14 15:43:00,
2013-06-14 11:48:00,68.6,57.2,29.88,WNW,298,1.0,1.0,67,0.00,,---,0.00,VWS V14.01,2013-06-14 15:48:00,
2013-06-14 11:53:00,69.0,57.2,29.88,North,349,0.0,1.0,66,0.00,,---,0.00,VWS V14.01,2013-06-14 15:53:00,
2013-06-14 11:58:00,69.3,55.7,29.88,East,91,0.0,0.0,62,0.00,,---,0.00,VWS V14.01,2013-06-14 15:58:00,
2013-06-14 12:03:00,69.7,57.4,29.88,NNW,347,0.0,0.0,65,0.00,,---,0.00,VWS V14.01,2013-06-14 16:03:00,
2013-06-14 12:08:00,70.3,58.4,29.88,NE,39,0.0,0.0,66,0.00,,---,0.00,VWS V14.01,2013-06-14 16:08:00,
2013-06-14 12:13:00,70.9,56.3,29.88,WSW,248,0.0,2.0,60,0.00,,---,0.00,VWS V14.01,2013-06-14 16:13:00,
2013-06-14 12:18:00,71.2,58.4,29.88,South,174,0.0,0.0,64,0.00,,---,0.00,VWS V14.01,2013-06-14 16:18:00,
2013-06-14 12:24:00,71.6,59.2,29.88,East,93,0.0,0.0,65,0.00,,---,0.00,VWS V14.01,2013-06-14 16:24:00,
2013-06-14 12:29:00,71.8,59.4,29.88,NE,36,0.0,0.0,65,0.00,,---,0.00,VWS V14.01,2013-06-14 16:29:00,
2013-06-14 12:34:00,72.0,57.8,29.88,South,189,1.0,1.0,61,0.00,,---,0.00,VWS V14.01,2013-06-14 16:34:00,
2013-06-14 12:39:00,72.2,58.5,29.88,ESE,121,2.0,2.0,62,0.00,,---,0.00,VWS V14.01,2013-06-14 16:39:00,
2013-06-14 12:44:00,71.9,58.6,29.88,South,174,0.0,1.0,63,0.00,,---,0.00,VWS V14.01,2013-06-14 16:44:00,
2013-06-14 12:49:00,71.7,57.1,29.88,SW,232,0.0,0.0,60,0.00,,---,0.00,VWS V14.01,2013-06-14 16:49:00,
2013-06-14 12:54:00,71.3,56.7,29.89,SSW,197,0.0,0.0,60,0.00,,---,0.00,VWS V14.01,2013-06-14 16:54:00,
2013-06-14 12:59:00,71.3,58.1,29.88,WNW,301,0.0,0.0,63,0.00,,---,0.00,VWS V14.01,2013-06-14 16:59:00,
2013-06-14 13:05:00,71.5,57.8,29.89,SSW,200,0.0,0.0,62,0.00,,---,0.00,VWS V14.01,2013-06-14 17:05:00,
2013-06-14 13:10:00,71.6,60.1,29.88,South,188,0.0,0.0,67,0.00,,---,0.00,VWS V14.01,2013-06-14 17:10:00,
2013-06-14 13:15:00,72.0,57.4,29.89,SSW,212,0.0,0.0,60,0.00,,---,0.00,VWS V14.01,2013-06-14 17:15:00,
2013-06-14 13:20:00,71.6,58.8,29.89,SW,226,0.0,0.0,64,0.00,,---,0.00,VWS V14.01,2013-06-14 17:20:00,
2013-06-14 13:25:00,71.7,59.8,29.89,WSW,243,0.0,2.0,66,0.00,,---,0.00,VWS V14.01,2013-06-14 17:25:00,
2013-06-14 13:30:00,71.5,57.8,29.89,SSE,158,0.0,0.0,62,0.00,,---,0.00,VWS V14.01,2013-06-14 17:30:00,
2013-06-14 13:36:00,71.2,60.1,29.89,SW,226,1.0,1.0,68,0.00,,---,0.00,VWS V14.01,2013-06-14 17:36:00,
2013-06-14 13:41:00,71.0,58.2,29.88,SSW,194,0.0,0.0,64,0.00,,---,0.00,VWS V14.01,2013-06-14 17:41:00,
2013-06-14 13:46:00,70.7,57.5,29.88,SE,146,0.0,0.0,63,0.00,,---,0.00,VWS V14.01,2013-06-14 17:46:00,
2013-06-14 13:51:00,71.0,56.9,29.88,SSE,157,0.0,0.0,61,0.00,,---,0.00,VWS V14.01,2013-06-14 17:51:00,
2013-06-14 13:56:00,71.9,59.5,29.88,NW,319,1.0,1.0,65,0.00,,---,0.00,VWS V14.01,2013-06-14 17:56:00,
2013-06-14 14:01:00,72.8,61.6,29.88,SE,131,0.0,0.0,68,0.00,,---,0.00,VWS V14.01,2013-06-14 18:01:00,
2013-06-14 14:06:00,72.9,58.7,29.88,WSW,242,0.0,1.0,61,0.00,,---,0.00,VWS V14.01,2013-06-14 18:06:00,
2013-06-14 14:11:00,72.9,59.1,29.88,SSW,197,0.0,0.0,62,0.00,,---,0.00,VWS V14.01,2013-06-14 18:11:00,
2013-06-14 14:16:00,72.7,57.6,29.88,West,280,0.0,1.0,59,0.00,,---,0.00,VWS V14.01,2013-06-14 18:16:00,
2013-06-14 14:22:00,72.4,58.2,29.88,NNW,342,2.0,2.0,61,0.00,,---,0.00,VWS V14.01,2013-06-14 18:22:00,
2013-06-14 14:27:00,72.5,60.1,29.88,East,95,0.0,0.0,65,0.00,,---,0.00,VWS V14.01,2013-06-14 18:27:00,
2013-06-14 14:32:00,72.5,59.6,29.88,NNE,18,0.0,0.0,64,0.00,,---,0.00,VWS V14.01,2013-06-14 18:32:00,
2013-06-14 14:37:00,72.4,60.0,29.88,SE,130,0.0,1.0,65,0.00,,---,0.00,VWS V14.01,2013-06-14 18:37:00,
2013-06-14 14:42:00,72.6,59.3,29.88,SSW,200,0.0,1.0,63,0.00,,---,0.00,VWS V14.01,2013-06-14 18:42:00,
2013-06-14 14:47:00,72.7,56.6,29.88,NW,305,0.0,1.0,57,0.00,,---,0.00,VWS V14.01,2013-06-14 18:47:00,
2013-06-14 14:52:00,72.6,58.8,29.88,SSE,158,2.0,2.0,62,0.00,,---,0.00,VWS V14.01,2013-06-14 18:52:00,
2013-06-14 14:57:00,72.4,57.8,29.88,North,355,1.0,1.0,60,0.00,,---,0.00,VWS V14.01,2013-06-14 18:57:00,
2013-06-14 15:02:00,72.5,57.8,29.88,SSE,150,1.0,1.0,60,0.00,,---,0.00,VWS V14.01,2013-06-14 19:02:00,
2013-06-14 15:08:00,73.0,59.2,29.88,South,170,0.0,1.0,62,0.00,,---,0.00,VWS V14.01,2013-06-14 19:08:00,
2013-06-14 15:13:00,73.2,57.1,29.88,SSE,164,0.0,0.0,57,0.00,,---,0.00,VWS V14.01,2013-06-14 19:13:00,
2013-06-14 15:18:00,73.3,59.5,29.88,ENE,74,0.0,0.0,62,0.00,,---,0.00,VWS V14.01,2013-06-14 19:18:00,
2013-06-14 15:23:00,73.1,61.1,29.88,SE,130,0.0,1.0,66,0.00,,---,0.00,VWS V14.01,2013-06-14 19:23:00,
2013-06-14 15:28:00,73.2,56.6,29.88,SSW,194,0.0,1.0,56,0.00,,---,0.00,VWS V14.01,2013-06-14 19:28:00,
2013-06-14 15:34:00,73.3,56.7,29.88,NW,319,0.0,0.0,56,0.00,,---,0.00,VWS V14.01,2013-06-14 19:34:00,
2013-06-14 15:39:00,73.5,56.4,29.87,NW,314,1.0,1.0,55,0.00,,---,0.00,VWS V14.01,2013-06-14 19:39:00,
2013-06-14 15:44:00,73.7,56.0,29.87,West,276,0.0,3.0,54,0.00,,---,0.00,VWS V14.01,2013-06-14 19:44:00,
2013-06-14 15:49:00,73.7,59.4,29.87,South,169,1.0,1.0,61,0.00,,---,0.00,VWS V14.01,2013-06-14 19:49:00,
2013-06-14 15:54:00,73.5,60.2,29.87,ESE,117,0.0,0.0,63,0.00,,---,0.00,VWS V14.01,2013-06-14 19:54:00,
2013-06-14 15:59:00,73.3,59.0,29.87,South,170,0.0,0.0,61,0.00,,---,0.00,VWS V14.01,2013-06-14 19:59:00,
2013-06-14 16:04:00,73.5,58.3,29.87,WSW,246,0.0,0.0,59,0.00,,---,0.00,VWS V14.01,2013-06-14 20:04:00,
2013-06-14 16:09:00,73.7,58.5,29.87,SW,215,0.0,0.0,59,0.00,,---,0.00,VWS V14.01,2013-06-14 20:09:00,
2013-06-14 16:14:00,73.7,57.5,29.88,SW,232,0.0,0.0,57,0.00,,---,0.00,VWS V14.01,2013-06-14 20:14:00,
2013-06-14 16:19:00,73.9,57.7,29.88,WNW,302,0.0,0.0,57,0.00,,---,0.00,VWS V14.01,2013-06-14 20:19:00,
2013-06-14 16:24:00,74.2,58.0,29.88,SSW,200,0.0,1.0,57,0.00,,---,0.00,VWS V14.01,2013-06-14 20:24:00,
2013-06-14 16:29:00,74.4,56.7,29.88,West,259,0.0,0.0,54,0.00,,---,0.00,VWS V14.01,2013-06-14 20:29:00,
2013-06-14 16:34:00,74.3,56.1,29.87,SE,134,0.0,0.0,53,0.00,,---,0.00,VWS V14.01,2013-06-14 20:34:00,
2013-06-14 16:39:00,74.7,57.0,29.87,SSE,163,0.0,0.0,54,0.00,,---,0.00,VWS V14.01,2013-06-14 20:39:00,
2013-06-14 16:45:00,74.7,56.5,29.87,WSW,256,0.0,0.0,53,0.00,,---,0.00,VWS V14.01,2013-06-14 20:45:00,
2013-06-14 16:50:00,74.6,56.9,29.88,WSW,256,0.0,0.0,54,0.00,,---,0.00,VWS V14.01,2013-06-14 20:50:00,
2013-06-14 16:55:00,74.2,57.0,29.88,WSW,256,0.0,0.0,55,0.00,,---,0.00,VWS V14.01,2013-06-14 20:55:00,
2013-06-14 17:00:00,73.6,58.4,29.88,SW,233,0.0,0.0,59,0.00,,---,0.00,VWS V14.01,2013-06-14 21:00:00,
2013-06-14 17:05:00,73.1,56.5,29.88,SSE,167,0.0,1.0,56,0.00,,---,0.00,VWS V14.01,2013-06-14 21:05:00,
2013-06-14 17:10:00,73.0,59.2,29.88,South,187,0.0,0.0,62,0.00,,---,0.00,VWS V14.01,2013-06-14 21:10:00,
2013-06-14 17:15:00,72.7,58.0,29.88,SSW,201,0.0,0.0,60,0.00,,---,0.00,VWS V14.01,2013-06-14 21:15:00,
2013-06-14 17:20:00,72.6,57.5,29.88,SSW,208,0.0,2.0,59,0.00,,---,0.00,VWS V14.01,2013-06-14 21:20:00,
2013-06-14 17:25:00,72.2,56.1,29.89,SSW,208,0.0,0.0,57,0.00,,---,0.00,VWS V14.01,2013-06-14 21:25:00,
2013-06-14 17:31:00,71.8,57.2,29.89,SSW,210,0.0,0.0,60,0.00,,---,0.00,VWS V14.01,2013-06-14 21:31:00,
2013-06-14 17:36:00,71.4,57.3,29.88,SSW,210,0.0,0.0,61,0.00,,---,0.00,VWS V14.01,2013-06-14 21:36:00,
2013-06-14 17:41:00,71.1,55.6,29.88,South,181,0.0,0.0,58,0.00,,---,0.00,VWS V14.01,2013-06-14 21:41:00,
2013-06-14 17:46:00,71.3,58.5,29.88,SW,226,0.0,0.0,64,0.00,,---,0.00,VWS V14.01,2013-06-14 21:46:00,
2013-06-14 17:51:00,71.3,56.7,29.88,SW,236,0.0,0.0,60,0.00,,---,0.00,VWS V14.01,2013-06-14 21:51:00,
2013-06-14 17:56:00,71.2,56.6,29.88,West,269,0.0,0.0,60,0.00,,---,0.00,VWS V14.01,2013-06-14 21:56:00,
2013-06-14 18:01:00,71.5,58.7,29.89,West,269,0.0,0.0,64,0.00,,---,0.00,VWS V14.01,2013-06-14 22:01:00,
2013-06-14 18:06:00,71.7,58.9,29.89,SSE,150,1.0,1.0,64,0.00,,---,0.00,VWS V14.01,2013-06-14 22:06:00,
2013-06-14 18:11:00,71.9,58.2,29.89,South,170,0.0,0.0,62,0.00,,---,0.00,VWS V14.01,2013-06-14 22:11:00,
2013-06-14 18:16:00,72.0,58.3,29.89,SSW,211,0.0,0.0,62,0.00,,---,0.00,VWS V14.01,2013-06-14 22:16:00,
2013-06-14 18:21:00,71.9,57.7,29.89,SSW,211,0.0,0.0,61,0.00,,---,0.00,VWS V14.01,2013-06-14 22:21:00,
2013-06-14 18:26:00,71.6,57.0,29.89,SSW,211,0.0,0.0,60,0.00,,---,0.00,VWS V14.01,2013-06-14 22:26:00,
2013-06-14 18:31:00,71.3,56.2,29.89,South,177,0.0,2.0,59,0.00,,---,0.00,VWS V14.01,2013-06-14 22:31:00,
2013-06-14 18:36:00,71.0,57.3,29.89,South,179,0.0,0.0,62,0.00,,---,0.00,VWS V14.01,2013-06-14 22:36:00,
2013-06-14 18:41:00,70.7,56.2,29.89,WSW,242,0.0,0.0,60,0.00,,---,0.00,VWS V14.01,2013-06-14 22:41:00,
2013-06-14 18:46:00,70.5,57.3,29.89,WSW,242,0.0,0.0,63,0.00,,---,0.00,VWS V14.01,2013-06-14 22:46:00,
2013-06-14 18:52:00,70.3,56.7,29.89,SW,215,0.0,0.0,62,0.00,,---,0.00,VWS V14.01,2013-06-14 22:52:00,
2013-06-14 18:57:00,70.2,57.0,29.90,WSW,248,0.0,0.0,63,0.00,,---,0.00,VWS V14.01,2013-06-14 22:57:00,
2013-06-14 19:02:00,70.0,57.7,29.90,WSW,250,0.0,0.0,65,0.00,,---,0.00,VWS V14.01,2013-06-14 23:02:00,
2013-06-14 19:07:00,69.9,56.8,29.90,West,271,0.0,1.0,63,0.00,,---,0.00,VWS V14.01,2013-06-14 23:07:00,
2013-06-14 19:12:00,69.8,56.7,29.90,ESE,108,0.0,0.0,63,0.00,,---,0.00,VWS V14.01,2013-06-14 23:12:00,
2013-06-14 19:17:00,69.6,56.0,29.90,NNW,342,0.0,0.0,62,0.00,,---,0.00,VWS V14.01,2013-06-14 23:17:00,
2013-06-14 19:22:00,69.5,55.5,29.90,West,271,0.0,0.0,61,0.00,,---,0.00,VWS V14.01,2013-06-14 23:22:00,
2013-06-14 19:28:00,69.4,56.3,29.90,WSW,255,0.0,1.0,63,0.00,,---,0.00,VWS V14.01,2013-06-14 23:28:00,
2013-06-14 19:33:00,69.2,56.1,29.91,West,276,0.0,1.0,63,0.00,,---,0.00,VWS V14.01,2013-06-14 23:33:00,
2013-06-14 19:38:00,69.0,56.3,29.91,West,276,0.0,0.0,64,0.00,,---,0.00,VWS V14.01,2013-06-14 23:38:00,
2013-06-14 19:43:00,68.7,56.5,29.91,West,276,0.0,0.0,65,0.00,,---,0.00,VWS V14.01,2013-06-14 23:43:00,
2013-06-14 19:48:00,68.6,56.4,29.91,West,277,0.0,0.0,65,0.00,,---,0.00,VWS V14.01,2013-06-14 23:48:00,
2013-06-14 19:53:00,68.5,56.3,29.91,West,278,0.0,0.0,65,0.00,,---,0.00,VWS V14.01,2013-06-14 23:53:00,
2013-06-14 19:58:00,68.3,56.1,29.91,West,278,0.0,0.0,65,0.00,,---,0.00,VWS V14.01,2013-06-14 23:58:00,
2013-06-14 20:03:00,68.3,56.5,29.91,West,276,0.0,0.0,66,0.00,,---,0.00,VWS V14.01,2013-06-15 00:03:00,
2013-06-14 20:08:00,68.1,56.3,29.91,West,276,0.0,0.0,66,0.00,,---,0.00,VWS V14.01,2013-06-15 00:08:00,
2013-06-14 20:13:00,67.9,56.5,29.91,West,277,0.0,0.0,67,0.00,,---,0.00,VWS V14.01,2013-06-15 00:13:00,
2013-06-14 20:18:00,67.7,56.4,29.91,West,274,0.0,1.0,67,0.00,,---,0.00,VWS V14.01,2013-06-15 00:18:00,
2013-06-14 20:23:00,67.6,56.3,29.91,West,274,0.0,1.0,67,0.00,,---,0.00,VWS V14.01,2013-06-15 00:23:00,
2013-06-14 20:29:00,67.5,56.2,29.91,West,277,0.0,0.0,67,0.00,,---,0.00,VWS V14.01,2013-06-15 00:29:00,
2013-06-14 20:34:00,67.4,56.5,29.92,West,278,0.0,0.0,68,0.00,,---,0.00,VWS V14.01,2013-06-15 00:34:00,
2013-06-14 20:39:00,67.3,56.4,29.92,WNW,283,1.0,1.0,68,0.00,,---,0.00,VWS V14.01,2013-06-15 00:39:00,
2013-06-14 20:44:00,67.3,56.8,29.92,WSW,256,0.0,0.0,69,0.00,,---,0.00,VWS V14.01,2013-06-15 00:44:00,
2013-06-14 20:49:00,67.4,56.5,29.92,West,279,0.0,1.0,68,0.00,,---,0.00,VWS V14.01,2013-06-15 00:49:00,
2013-06-14 20:54:00,67.3,56.4,29.92,West,267,0.0,0.0,68,0.00,,---,0.00,VWS V14.01,2013-06-15 00:54:00,
2013-06-14 20:59:00,67.2,56.7,29.92,West,277,0.0,1.0,69,0.00,,---,0.00,VWS V14.01,2013-06-15 00:59:00,
2013-06-14 21:04:00,67.2,56.3,29.92,West,263,1.0,1.0,68,0.00,,---,0.00,VWS V14.01,2013-06-15 01:04:00,
2013-06-14 21:09:00,67.1,56.2,29.92,WSW,255,0.0,1.0,68,0.00,,---,0.00,VWS V14.01,2013-06-15 01:09:00,
2013-06-14 21:14:00,67.1,56.6,29.93,West,278,0.0,2.0,69,0.00,,---,0.00,VWS V14.01,2013-06-15 01:14:00,
2013-06-14 21:20:00,67.0,56.1,29.93,West,275,0.0,0.0,68,0.00,,---,0.00,VWS V14.01,2013-06-15 01:20:00,
2013-06-14 21:25:00,66.9,56.4,29.93,West,280,0.0,1.0,69,0.00,,---,0.00,VWS V14.01,2013-06-15 01:25:00,
2013-06-14 21:30:00,66.8,56.3,29.93,West,279,0.0,1.0,69,0.00,,---,0.00,VWS V14.01,2013-06-15 01:30:00,
2013-06-14 21:35:00,66.7,56.2,29.93,West,278,0.0,1.0,69,0.00,,---,0.00,VWS V14.01,2013-06-15 01:35:00,
2013-06-14 21:40:00,66.6,56.5,29.93,SSW,198,0.0,0.0,70,0.00,,---,0.00,VWS V14.01,2013-06-15 01:40:00,
2013-06-14 21:45:00,66.5,56.4,29.93,SSW,198,0.0,0.0,70,0.00,,---,0.00,VWS V14.01,2013-06-15 01:45:00,
2013-06-14 21:50:00,66.4,56.3,29.94,West,276,0.0,1.0,70,0.00,,---,0.00,VWS V14.01,2013-06-15 01:50:00,
2013-06-14 21:55:00,66.3,56.2,29.94,West,275,0.0,0.0,70,0.00,,---,0.00,VWS V14.01,2013-06-15 01:55:00,
2013-06-14 22:00:00,66.1,56.4,29.94,West,276,0.0,0.0,71,0.00,,---,0.00,VWS V14.01,2013-06-15 02:00:00,
2013-06-14 22:05:00,65.9,56.2,29.94,West,275,0.0,0.0,71,0.00,,---,0.00,VWS V14.01,2013-06-15 02:05:00,
2013-06-14 22:10:00,65.8,56.2,29.95,West,276,0.0,0.0,71,0.00,,---,0.00,VWS V14.01,2013-06-15 02:10:00,
2013-06-14 22:16:00,65.7,56.0,29.95,West,277,0.0,0.0,71,0.00,,---,0.00,VWS V14.01,2013-06-15 02:16:00,
2013-06-14 22:21:00,65.8,56.5,29.95,West,275,0.0,0.0,72,0.00,,---,0.00,VWS V14.01,2013-06-15 02:21:00,
2013-06-14 22:26:00,65.8,56.5,29.95,West,266,0.0,1.0,72,0.00,,---,0.00,VWS V14.01,2013-06-15 02:26:00,
2013-06-14 22:31:00,65.8,56.5,29.95,West,267,0.0,0.0,72,0.00,,---,0.00,VWS V14.01,2013-06-15 02:31:00,
2013-06-14 22:36:00,65.6,56.3,29.95,West,267,0.0,0.0,72,0.00,,---,0.00,VWS V14.01,2013-06-15 02:36:00,
2013-06-14 22:41:00,65.6,56.3,29.96,SSW,204,0.0,0.0,72,0.00,,---,0.00,VWS V14.01,2013-06-15 02:41:00,
2013-06-14 22:46:00,65.4,56.2,29.96,SW,214,0.0,0.0,72,0.00,,---,0.00,VWS V14.01,2013-06-15 02:46:00,
2013-06-14 22:51:00,65.4,56.5,29.96,SW,236,0.0,0.0,73,0.00,,---,0.00,VWS V14.01,2013-06-15 02:51:00,
2013-06-14 22:56:00,65.2,56.3,29.96,WSW,255,0.0,0.0,73,0.00,,---,0.00,VWS V14.01,2013-06-15 02:56:00,
2013-06-14 23:01:00,65.1,56.2,29.96,West,259,0.0,0.0,73,0.00,,---,0.00,VWS V14.01,2013-06-15 03:01:00,
2013-06-14 23:06:00,65.1,56.2,29.96,West,260,0.0,1.0,73,0.00,,---,0.00,VWS V14.01,2013-06-15 03:06:00,
2013-06-14 23:11:00,65.0,56.2,29.96,West,260,0.0,0.0,73,0.00,,---,0.00,VWS V14.01,2013-06-15 03:11:00,
2013-06-14 23:16:00,64.9,56.0,29.97,WNW,283,0.0,1.0,73,0.00,,---,0.00,VWS V14.01,2013-06-15 03:16:00,
2013-06-14 23:21:00,64.8,56.0,29.97,West,277,0.0,0.0,73,0.00,,---,0.00,VWS V14.01,2013-06-15 03:21:00,
2013-06-14 23:26:00,64.8,56.0,29.97,West,276,0.0,0.0,73,0.00,,---,0.00,VWS V14.01,2013-06-15 03:26:00,
2013-06-14 23:32:00,64.7,56.2,29.97,West,278,0.0,0.0,74,0.00,,---,0.00,VWS V14.01,2013-06-15 03:32:00,
2013-06-14 23:37:00,64.5,56.4,29.97,West,278,0.0,0.0,75,0.00,,---,0.00,VWS V14.01,2013-06-15 03:37:00,
2013-06-14 23:42:00,64.3,56.2,29.98,West,267,0.0,0.0,75,0.00,,---,0.00,VWS V14.01,2013-06-15 03:42:00,
2013-06-14 23:47:00,64.2,56.1,29.98,West,267,0.0,0.0,75,0.00,,---,0.00,VWS V14.01,2013-06-15 03:47:00,
2013-06-14 23:52:00,64.1,56.0,29.98,West,267,0.0,0.0,75,0.00,,---,0.00,VWS V14.01,2013-06-15 03:52:00,
2013-06-14 23:57:00,64.1,56.0,29.98,West,274,0.0,0.0,75,0.00,,---,0.00,VWS V14.01,2013-06-15 03:57:00,